User: anonymous
Location: Albany
(35.0000°S, 118.0000°E)
Time: 01:30:07
(UTC-04:00)
Language:

ERS-1 Rocket - Orbit

View from above orbital plane
View from above orbital plane
View from above satellite
View from above satellite

Ground track
Ground track

The orbit data is extracted from the following two-line orbital elements,

1 21610U 91050F   14107.69777822  .00000574  00000-0  19595-3 0  4731
2 21610 098.7466 131.1302 0004198 140.9939 355.3173 14.40226600193601
Epoch (UTC): 17 April 2014 16:44:48
Eccentricity: 0.0004198
inclination: 98.7466°
perigee height: 755 km
apogee height: 761 km
right ascension of ascending node: 131.1302°
argument of perigee: 140.9939°
revolutions per day: 14.40226600
mean anomaly at epoch: 355.3173°
orbit number at epoch: 19360

The dashed part of the orbit path shows where the satellite is in the earth's shadow,  

DLR